Flag for France Weather past 2 weeks in Strasbourg, France

Now
68 °F

Clear.


Feels Like: 68 °F
Forecast: 61 / 83 °F
Wind: 2 mph from North

Location: Strasbourg Airport

Current Time: Aug 2, 2014 at 12:36:26 AM

Latest Report: Aug 2, 2014 at 12:00 AM


Visibility: N/A

Pressure: 29.80 "Hg

Humidity: 78%

Dew point: 61 °F

Location of StrasbourgLocation

Historic Weather in Strasbourg — Graph

°F

Strasbourg temperature yesterday

Maximum temperature yesterday: 84 °F (at 6:00 PM)
Minimum temperature yesterday: 59 °F (at 5:00 AM)
Average temperature yesterday: 72 °F

Past Weeks' High & Low Weather Summary

 TemperatureHumidityPressure
High93 °F (Jul 19, 5:30 PM)100% (Jul 21, 1:30 AM)30.09 "Hg (Jul 21, 1:30 AM)
Low32 °F (Jul 26, 8:30 AM)29% (Jul 18, 4:00 PM)29.77 "Hg (Aug 1, 7:00 PM)
Average70 °F76%29.91 "Hg
* Reported Jul 17 11:00 PM — Aug 1 11:30 PM, Strasbourg, Weather by CustomWeather, © 2014

Note: Actual official high and low records may vary slightly from our data, if they occured in-between our weather recording intervals... More about our weather records

Advertising

Strasbourg weather history for previous 24 hours

 ConditionsComfort  
Time TempWeatherWind HumidityBarometerVisibility
11:30 PM
Aug 1
68 °FPassing clouds.1 mph83%29.80 "HgN/A
11:00 PM70 °FClear.2 mph73%29.80 "HgN/A
10:30 PM72 °FClear.3 mph73%29.80 "HgN/A
10:00 PM72 °FClear.3 mph73%29.80 "HgN/A
9:30 PM73 °FLight rain. Clear.3 mph65%29.77 "HgN/A
9:00 PM75 °FClear.6 mph61%29.77 "HgN/A
8:30 PM79 °FPassing clouds.6 mph51%29.77 "HgN/A
8:00 PM79 °FClear.8 mph51%29.77 "HgN/A
7:30 PM81 °FClear.8 mph48%29.77 "HgN/A
7:00 PM82 °FScattered clouds.9 mph45%29.77 "HgN/A
6:30 PM82 °FPassing clouds.6 mph42%29.80 "HgN/A
6:00 PM84 °FPassing clouds.6 mph43%29.80 "HgN/A
5:30 PM82 °FPassing clouds.2 mph42%29.80 "HgN/A
5:00 PM82 °FPassing clouds.5 mph42%29.80 "HgN/A
4:30 PM82 °FPassing clouds.5 mph45%29.80 "HgN/A
4:00 PM82 °FPassing clouds.3 mph42%29.80 "HgN/A
3:30 PM82 °FPassing clouds.5 mph45%29.83 "HgN/A
3:00 PM82 °FPassing clouds.3 mph45%29.83 "HgN/A
2:30 PM81 °FClear.3 mph45%29.83 "HgN/A
2:00 PM81 °FClear.2 mph45%29.83 "HgN/A
1:30 PM81 °FClear.2 mph48%29.83 "HgN/A
1:00 PM81 °FClear.5 mph48%29.86 "HgN/A
12:30 PM79 °FClear.2 mph54%29.86 "HgN/A
12:00 PM77 °FClear.2 mph57%29.86 "HgN/A
11:30 AM77 °FClear.3 mph57%29.86 "HgN/A
11:00 AM75 °FClear.2 mph65%29.89 "HgN/A
10:30 AM73 °FClear.1 mph65%29.89 "HgN/A
10:00 AM72 °FClear.2 mph69%29.89 "HgN/A
9:30 AM70 °FClear.1 mph73%29.89 "HgN/A
9:00 AM68 °FClear.2 mph78%29.89 "HgN/A
8:30 AM64 °FClear.N/A83%29.89 "HgN/A
8:00 AM63 °FClear.2 mph88%29.89 "HgN/A
7:30 AM61 °FClear.1 mph94%29.89 "HgN/A
7:00 AM61 °FPassing clouds.1 mph94%29.89 "HgN/A
6:30 AM61 °FPassing clouds.1 mph94%29.89 "HgN/A
5:30 AM59 °FPassing clouds.1 mph94%29.89 "HgN/A
5:00 AM59 °FClear.2 mph94%29.89 "HgN/A
4:30 AM61 °FPassing clouds.3 mph94%29.89 "HgN/A
4:00 AM61 °FPassing clouds.No wind94%29.92 "HgN/A
3:30 AM63 °FPassing clouds.1 mph88%29.92 "HgN/A
3:00 AM63 °FPartly cloudy.2 mph94%29.92 "HgN/A
2:30 AM63 °FPassing clouds.No wind94%29.92 "HgN/A
2:00 AM64 °FPassing clouds.No wind88%29.92 "HgN/A
1:30 AM64 °FPassing clouds.2 mph83%29.92 "HgN/A
1:00 AM64 °FPassing clouds.2 mph88%29.92 "HgN/A
12:30 AM64 °FPassing clouds.1 mph88%29.92 "HgN/A
12:00 AM66 °FPartly cloudy.2 mph83%29.92 "HgN/A
Weather by CustomWeather, © 2014

See weather overviewHow to use our weather pages